Weather History for KCUT - February, 2015

Change the Weather History Date:

Sunday, February 8, 2015

  Actual Average Record
Temperature  
Mean Temperature 42 °F 25 °F  
Max Temperature 53 °F 35 °F 65 °F (1954)
Min Temperature 30 °F 14 °F -14 °F (2001)
Degree Days  
Heating Degree Days 23 40  
Month to date heating degree days 260 325  
Since 1 July heating degree days 4618 5060  
Cooling Degree Days 0 0  
Month to date cooling degree days 0 0  
Year to date cooling degree days 0 0  
Moisture  
Dew Point 23 °F    
Average Humidity 50    
Maximum Humidity 69    
Minimum Humidity 30    
Precipitation  
Precipitation 0.00 in 0.02 in 0.22 in (1975)
Month to date precipitation T 0.16  
Year to date precipitation 0.24 0.49  
Sea Level Pressure  
Sea Level Pressure 29.95 in    
Wind  
Wind Speed 9 mph (WNW)    
Max Wind Speed 24 mph    
Max Gust Speed 35 mph    
Visibility 10 miles    
Events      
T = Trace of Precipitation, MM = Missing Value Source: NWS Daily Summary

Daily Weather History Graph

Daily Weather History Graph

Search for Another Location

Airport or City:

Trip Planner

Search our weather history database for the weather conditions in past years. The results will help you decide how hot, cold, wet, or windy it might be!

Date:

Astronomy

Feb. 08, 2015 Rise Set
Actual Time 7:03 AM MST 5:14 PM MST
Civil Twilight 6:33 AM MST 5:44 PM MST
Nautical Twilight 5:59 AM MST 6:18 PM MST
Astronomical Twilight 5:25 AM MST 6:52 PM MST
Moon 10:05 PM MST (2/8) 9:02 AM MST (2/8)
Length of Visible Light 11h 11m
Length of Day
10h 11m
Waning Gibbous, 81% of the Moon is Illuminated
Feb 8
Waning Gibbous
Feb 11
Last Quarter
Feb 18
New
Feb 25
First Quarter
Mar 5
Full

Hourly Weather History & Observations

Time (MST) Temp. Windchill Dew Point Humidity Pressure Visibility Wind Dir Wind Speed Gust Speed Precip Events Conditions
12:53 AM 41.0 °F 36.4 °F 27.0 °F 57% 29.75 in 10.0 mi WNW 6.9 mph - N/A   Clear
1:53 AM 41.0 °F 35.2 °F 27.0 °F 57% 29.77 in 10.0 mi West 9.2 mph - N/A   Clear
2:53 AM 43.0 °F 37.7 °F 25.0 °F 49% 29.77 in 10.0 mi WNW 9.2 mph - N/A   Clear
3:53 AM 43.0 °F 38.8 °F 25.0 °F 49% 29.79 in 10.0 mi WNW 6.9 mph - N/A   Clear
4:53 AM 44.1 °F 38.1 °F 24.1 °F 45% 29.80 in 10.0 mi WNW 11.5 mph 17.3 mph N/A   Clear
5:53 AM 44.1 °F 40.1 °F 23.0 °F 43% 29.83 in 10.0 mi WNW 6.9 mph 19.6 mph N/A   Clear
6:53 AM 44.1 °F 39.5 °F 21.9 °F 42% 29.86 in 10.0 mi NW 8.1 mph 17.3 mph N/A   Clear
7:53 AM 45.0 °F 43.5 °F 23.0 °F 42% 29.90 in 10.0 mi Variable 3.5 mph - N/A   Clear
8:53 AM 46.9 °F - 23.0 °F 39% 29.90 in 10.0 mi West 6.9 mph - N/A   Clear
9:53 AM 50.0 °F - 23.0 °F 35% 29.91 in 10.0 mi WSW 5.8 mph - N/A   Partly Cloudy
10:53 AM 52.0 °F - 23.0 °F 32% 29.92 in 10.0 mi West 18.4 mph 28.8 mph N/A   Clear
11:53 AM 51.1 °F - 21.9 °F 32% 29.92 in 10.0 mi NW 16.1 mph 33.4 mph N/A   Clear
12:53 PM 51.1 °F - 23.0 °F 33% 29.95 in 10.0 mi WNW 16.1 mph 29.9 mph N/A   Clear
1:53 PM 52.0 °F - 23.0 °F 32% 29.94 in 10.0 mi West 17.3 mph 24.2 mph N/A   Clear
2:53 PM 51.1 °F - 21.9 °F 32% 29.96 in 10.0 mi West 16.1 mph 23.0 mph N/A   Clear
3:53 PM 50.0 °F - 23.0 °F 35% 29.99 in 10.0 mi WNW 15.0 mph 25.3 mph N/A   Clear
4:53 PM 48.0 °F - 23.0 °F 37% 30.03 in 10.0 mi WNW 9.2 mph 18.4 mph N/A   Clear
5:53 PM 46.0 °F 41.0 °F 23.0 °F 40% 30.06 in 10.0 mi WNW 10.4 mph - N/A   Clear
6:53 PM 41.0 °F - 23.0 °F 49% 30.09 in 10.0 mi Calm Calm - N/A   Clear
7:53 PM 41.0 °F 38.0 °F 23.0 °F 49% 30.09 in 10.0 mi NW 4.6 mph - N/A   Clear
8:53 PM 35.1 °F - 23.0 °F 61% 30.12 in 10.0 mi Calm Calm - N/A   Clear
9:53 PM 34.0 °F 29.8 °F 23.0 °F 64% 30.12 in 10.0 mi WSW 4.6 mph - N/A   Clear
10:53 PM 30.0 °F 24.1 °F 21.9 °F 72% 30.12 in 10.0 mi NNW 5.8 mph - N/A   Clear
11:53 PM 33.1 °F 30.0 °F 21.9 °F 64% 30.12 in 10.0 mi West 3.5 mph - N/A   Clear